Regional Weather Roundup
Issued by NWS

Home | Current Version | Previous Version | Graphics & Text | Print | Product List | Glossary On
Versions: 1 2 3 4 5 6 7 8 9 10 11 12 13 14 15 16 17 18 19 20 21 22 23 24 25 26 27 28 29 30 31 32 33 34 35 36 37 38 39 40 41 42 43 44 45 46 47 48 49 50
906
ASUS44 KLIX 302205
RWRLA
LOUISIANA WEATHER ROUNDUP
NATIONAL WEATHER SERVICE NEW ORLEANS LA
500 PM CDT WED JUL 30 2014

NOTE: "FAIR" INDICATES FEW OR NO CLOUDS BELOW 12,000 FEET WITH NO
      SIGNIFICANT WEATHER AND/OR OBSTRUCTIONS TO VISIBILITY.
      SKY/WX - SKY CONDITION AND SIGNIFICANT WEATHER.
      TMP - AIR TEMPERATURE.    DP   - DEWPOINT TEMPERATURE.
      RH  - RELATIVE HUMIDITY.  PRES - PRESSURE.
      HX  - HEAT INDEX.         WCI  - WIND CHILL INDEX.

*  THESE STATIONS ARE NOT NWS OR FAA STATIONS AND ARE NOT UNDER
   NWS QUALITY CONTROL.

LAZ040-048-061>063-065-066-069-302300-
SOUTHEAST LOUISIANA

CITY           SKY/WX    TMP DP  RH WIND       PRES   REMARKS
N.O. AUDUBON     N/A     90  63  40 MISG        N/A
N.O. INTL ARPT MOSUNNY   87  62  43 N6        30.00F
N.O. LAKEFRONT SUNNY     85  63  47 NW8       30.01F
N.O. DOWNTOWN* FAIR      88  57  35 NW6       30.01S
SLIDELL        SUNNY     87  60  40 N8        30.00S
BATON ROUGE    SUNNY     88  62  41 VRB5      30.01S
BOOTHVILLE     SUNNY     83  66  56 NE6       30.01F
BELLE CHASSE   MOSUNNY   87  58  37 N7        29.99F
BOGALUSA*      FAIR      86  57  37 NE6       30.03S
GALLIANO*      NOT AVBL
NEW ROADS*     FAIR      85  65  50 N8        30.02S
GONZALES*      FAIR      87  62  44 CALM      29.99F
HAMMOND*       SUNNY     88  55  33 N6        30.02F
HOUMA*         MOSUNNY   91  63  38 NW6       30.00F
PORT FOURCHON* PTCLDY    84  70  61 SE5       30.01S

$$

LAZ041-044-053-054-302300-
SOUTHWEST LOUISIANA

CITY           SKY/WX    TMP DP  RH WIND       PRES   REMARKS
LAKE CHARLES   SUNNY     90  67  46 E6        29.99F
LAFAYETTE      SUNNY     88  65  46 NE9       30.00F
PATTERSON      SUNNY     88  68  51 N8        30.04S
SALT POINT       N/A     89  71  55 VRB5      29.99F HX  95
NEW IBERIA     SUNNY     90  64  42 N10       30.00F
CHENAULT AIRPK MOSUNNY   90  64  43 N5        30.00F

$$

LAZ027-028-302300-
CENTRAL LOUISIANA

CITY           SKY/WX    TMP DP  RH WIND       PRES   REMARKS
FORT POLK      SUNNY     89  63  41 N7        30.01F
ALEXANDRIA INT SUNNY     90  61  37 N6        30.00F
ALEXANDRIA     SUNNY     88  63  43 VRB3      30.02F

$$

LAZ001-002-302300-
NORTHWEST LOUISIANA

CITY           SKY/WX    TMP DP  RH WIND       PRES   REMARKS
SHREVEPORT     CLOUDY    85  60  42 E6        30.02F
BARKSDALE AFB  CLOUDY    83  64  53 E6        30.03F
DTN SHREVEPORT CLOUDY    82  63  52 NE6       30.03F

$$

LAZ014-016-302300-
NORTHEAST LOUISIANA

CITY           SKY/WX    TMP DP  RH WIND       PRES   REMARKS
MONROE         PTSUNNY   84  62  47 NE8       30.06S
TALLULAH       MOSUNNY   84  60  44 NE6       30.05S

$$




USA.gov is the U.S. government's official web portal to all federal, state and local government web resources and services.